Weather History for Worland, WY

Change the Weather History Date:

Sunday, June 16, 2013

  Actual Average Record
Temperature  
Mean Temperature 66 °F 65 °F  
Max Temperature 87 °F 81 °F 100 °F (1986)
Min Temperature 44 °F 49 °F 43 °F (1991)
Degree Days  
Heating Degree Days 0 3  
Month to date heating degree days 40 69  
Since 1 June heating degree days 40 69  
Since 1 July heating degree days 7461 7845  
Cooling Degree Days 1 3  
Month to date cooling degree days 35 28  
Year to date cooling degree days 52 40  
Since 1 June cooling degree days 35 28  
Growing Degree Days 16 (Base 50)    
Moisture  
Dew Point 32 °F    
Average Humidity 32    
Maximum Humidity 53    
Minimum Humidity 10    
Precipitation  
Precipitation T in 0.04 in 0.67 in (1990)
Month to date precipitation 0.07 0.74  
Year to date precipitation 2.76 3.90  
Sea Level Pressure  
Sea Level Pressure 29.94 in    
Wind  
Wind Speed 6 mph (NNW)    
Max Wind Speed 24 mph    
Max Gust Speed 30 mph    
Visibility 10 miles    
Events      
T = Trace of Precipitation, MM = Missing Value Source: NWS Daily Summary

Daily Weather History Graph

Daily Weather History Graph

Search for Another Location

Airport:

Trip Planner

Search our weather history database for the weather conditions in past years. The results will help you decide how hot, cold, wet, or windy it might be!

Date:

Astronomy

Jun. 16, 2013 Rise Set
Actual Time 5:28 AM MDT 8:56 PM MDT
Civil Twilight 4:52 AM MDT 9:33 PM MDT
Nautical Twilight 4:04 AM MDT 10:20 PM MDT
Astronomical Twilight 3:03 AM MDT 11:21 PM MDT
Moon 1:22 PM MDT (6/16) 12:49 AM MDT (6/16)
Length of Visible Light 16h 40m
Length of Day
15h 28m
Waxing Crescent, 50% of the Moon is Illuminated
Jun 16
Waxing Crescent
Jun 23
Full
Jun 29
Last Quarter
Jul 8
New
Jul 15
First Quarter

Hourly Weather History & Observations

Time (MDT) Temp. Windchill Dew Point Humidity Pressure Visibility Wind Dir Wind Speed Gust Speed Precip Events Conditions
12:53 AM 60.1 °F - 21.9 °F 23% 29.91 in 10.0 mi North 5.8 mph - N/A   Clear
1:53 AM 57.0 °F - 26.1 °F 30% 29.91 in 10.0 mi North 3.5 mph - N/A   Clear
2:53 AM 51.1 °F - 30.0 °F 44% 29.94 in 10.0 mi SSW 6.9 mph - N/A   Clear
3:53 AM 48.0 °F - 27.0 °F 44% 29.95 in 10.0 mi SW 3.5 mph - N/A   Clear
4:53 AM 44.1 °F 42.5 °F 27.0 °F 51% 29.97 in 10.0 mi South 3.5 mph - N/A   Clear
5:53 AM 45.0 °F - 28.9 °F 53% 29.98 in 10.0 mi Calm Calm - N/A   Clear
6:53 AM 55.9 °F - 28.0 °F 34% 29.97 in 10.0 mi South 5.8 mph - N/A   Clear
7:53 AM 60.1 °F - 25.0 °F 26% 29.99 in 10.0 mi West 3.5 mph - N/A   Clear
8:53 AM 63.0 °F - 30.0 °F 29% 30.00 in 10.0 mi NW 3.5 mph - N/A   Clear
9:53 AM 68.0 °F - 36.0 °F 31% 30.01 in 10.0 mi Variable 3.5 mph - N/A   Clear
10:53 AM 71.1 °F - 36.0 °F 28% 30.01 in 10.0 mi NNE 4.6 mph - N/A   Clear
11:53 AM 75.0 °F - 37.0 °F 25% 29.97 in 10.0 mi NNE 6.9 mph - N/A   Clear
12:53 PM 79.0 °F - 35.1 °F 20% 29.94 in 10.0 mi North 8.1 mph - N/A   Clear
1:53 PM 82.9 °F - 35.1 °F 18% 29.91 in 10.0 mi North 8.1 mph - N/A   Clear
2:53 PM 82.9 °F - 30.0 °F 15% 29.91 in 10.0 mi North 5.8 mph - N/A   Clear
3:53 PM 84.0 °F - 21.9 °F 10% 29.90 in 10.0 mi Variable 3.5 mph - N/A   Clear
4:53 PM 87.1 °F - 25.0 °F 10% 29.88 in 10.0 mi NW 6.9 mph - N/A   Clear
5:53 PM 84.0 °F - 28.0 °F 13% 29.88 in 10.0 mi ENE 5.8 mph - N/A   Clear
6:53 PM 82.9 °F - 32.0 °F 16% 29.85 in 10.0 mi North 10.4 mph - N/A   Clear
7:53 PM 79.0 °F - 30.9 °F 17% 29.88 in 10.0 mi North 10.4 mph - N/A   Clear
8:53 PM 75.9 °F - 37.9 °F 25% 29.93 in 10.0 mi NNW 20.7 mph 27.6 mph N/A   Clear
9:53 PM 73.9 °F - 41.0 °F 30% 29.93 in 10.0 mi North 10.4 mph 18.4 mph N/A   Clear
10:53 PM 73.9 °F - 41.0 °F 30% 29.99 in 10.0 mi West 8.1 mph - N/A   Mostly Cloudy
11:53 PM 66.0 °F - 46.9 °F 50% 29.99 in 10.0 mi NNW 3.5 mph - 0.00 in   Clear